| time (UTC) | temp F | wind direction | speed MPH | gust MPH | rain 1hr in | rain 24hr in | rain mn in | humidity % | barometer mb |
| 20260504081607 | 39 | 202 | 4.0 | 12.0 | 0.00 | 0.00 | 0.00 | 78 | 1007.0 |
| 20260504060120 | 39 | 253 | 0.0 | 5.0 | 0.00 | 0.00 | 0.00 | 59 | 1007.0 |
| 20260504050114 | 38 | 283 | 1.0 | 4.0 | 0.00 | 0.00 | 0.00 | 60 | 1007.3 |
| 20260504044600 | 37 | 286 | 0.0 | 2.0 | 0.00 | 0.00 | 0.00 | 62 | 1007.5 |
| 20260504043110 | 37 | 284 | 0.0 | 3.0 | 0.00 | 0.00 | 0.00 | 63 | 1007.6 |
| 20260504041558 | 37 | 331 | 0.0 | 3.0 | 0.00 | 0.00 | 0.00 | 62 | 1007.6 |
| 20260504041508 | 37 | 331 | 0.0 | 3.0 | 0.00 | 0.00 | 0.00 | 62 | 1007.6 |
| 20260504040106 | 37 | 333 | 0.0 | 5.0 | 0.00 | 0.00 | 0.00 | 63 | 1007.7 |
| 20260504034601 | 37 | 271 | 0.0 | 2.0 | 0.00 | 0.00 | 0.00 | 62 | 1007.6 |
| 20260504033103 | 37 | 272 | 0.0 | 4.0 | 0.00 | 0.00 | 0.00 | 62 | 1007.7 |
| 20260504031604 | 37 | 323 | 0.0 | 3.0 | 0.00 | 0.00 | 0.00 | 63 | 1007.9 |
| 20260504030100 | 37 | 323 | 0.0 | 1.0 | 0.00 | 0.00 | 0.00 | 62 | 1007.7 |
| 20260504024601 | 37 | 323 | 0.0 | 2.0 | 0.00 | 0.00 | 0.00 | 62 | 1007.8 |
| 20260504023059 | 37 | 323 | 1.0 | 3.0 | 0.00 | 0.00 | 0.00 | 63 | 1007.8 |
| 20260504021608 | 37 | 324 | 0.0 | 3.0 | 0.00 | 0.00 | 0.00 | 64 | 1007.9 |
| 20260504020059 | 37 | 347 | 0.0 | 3.0 | 0.00 | 0.00 | 0.00 | 64 | 1007.8 |
| 20260504014603 | 37 | 347 | 0.0 | 1.0 | 0.00 | 0.00 | 0.00 | 64 | 1007.9 |
| 20260504013113 | 36 | 350 | 0.0 | 0.0 | 0.00 | 0.00 | 0.00 | 65 | 1007.9 |
| 20260504011532 | 37 | 350 | 0.0 | 0.0 | 0.00 | 0.00 | 0.00 | 66 | 1007.7 |
| 20260504010115 | 37 | 350 | 0.0 | 2.0 | 0.00 | 0.00 | 0.00 | 64 | 1007.5 |
| 20260504004559 | 38 | 350 | 0.0 | 2.0 | 0.00 | 0.00 | 0.00 | 64 | 1007.4 |
| 20260504003059 | 38 | 350 | 0.0 | 0.0 | 0.00 | 0.00 | 0.00 | 63 | 1007.3 |
| 20260504001603 | 38 | 350 | 0.0 | 0.0 | 0.00 | 0.00 | 0.00 | 62 | 1007.3 |
| 20260503234559 | 40 | 350 | 0.0 | 1.0 | 0.00 | 0.00 | 0.00 | 62 | 1007.1 |
| 20260503233103 | 41 | 345 | 0.0 | 2.0 | 0.00 | 0.00 | 0.00 | 60 | 1006.9 |
| 20260503231559 | 42 | 345 | 0.0 | 4.0 | 0.00 | 0.00 | 0.00 | 57 | 1006.9 |
| 20260503230002 | 42 | 346 | 0.0 | 8.0 | 0.00 | 0.00 | 0.00 | 56 | 1006.8 |
| 20260503224601 | 42 | 296 | 1.0 | 6.0 | 0.00 | 0.01 | 0.00 | 57 | 1006.8 |
| 20260503223059 | 42 | 336 | 1.0 | 8.0 | 0.00 | 0.01 | 0.00 | 57 | 1006.8 |
| 20260503221500 | 43 | 340 | 1.0 | 5.0 | 0.00 | 0.01 | 0.00 | 56 | 1006.7 |
| 20260503220002 | 42 | 254 | 2.0 | 8.0 | 0.00 | 0.01 | 0.00 | 59 | 1006.7 |
| 20260503214600 | 42 | 325 | 2.0 | 8.0 | 0.00 | 0.01 | 0.00 | 57 | 1006.7 |
| 20260503213100 | 42 | 340 | 0.0 | 8.0 | 0.00 | 0.01 | 0.00 | 58 | 1006.7 |
| 20260503213001 | 42 | 340 | 2.0 | 8.0 | 0.00 | 0.01 | 0.00 | 57 | 1006.7 |
| 20260503211601 | 42 | 338 | 1.0 | 8.0 | 0.00 | 0.01 | 0.00 | 60 | 1006.7 |
| 20260503210101 | 41 | 323 | 0.0 | 10.0 | 0.00 | 0.01 | 0.00 | 60 | 1006.7 |
| 20260503210005 | 41 | 323 | 1.0 | 10.0 | 0.00 | 0.01 | 0.00 | 61 | 1006.7 |
| 20260503204610 | 41 | 261 | 5.0 | 15.0 | 0.00 | 0.01 | 0.00 | 57 | 1006.7 |
| 20260503204500 | 41 | 288 | 4.0 | 15.0 | 0.00 | 0.01 | 0.00 | 57 | 1006.6 |
| 20260503203107 | 43 | 290 | 1.0 | 8.0 | 0.00 | 0.01 | 0.00 | 58 | 1006.4 |
| 20260503201600 | 43 | 338 | 3.0 | 11.0 | 0.00 | 0.01 | 0.00 | 57 | 1006.4 |
| 20260503200100 | 42 | 347 | 2.0 | 9.0 | 0.00 | 0.01 | 0.00 | 57 | 1006.7 |
| 20260503200002 | 42 | 347 | 2.0 | 9.0 | 0.00 | 0.01 | 0.00 | 58 | 1006.6 |
| 20260503194628 | 42 | 198 | 4.0 | 10.0 | 0.00 | 0.01 | 0.00 | 57 | 1006.7 |
| 20260503193002 | 42 | 308 | 1.0 | 8.0 | 0.00 | 0.01 | 0.00 | 56 | 1006.8 |
| 20260503191604 | 43 | 335 | 3.0 | 10.0 | 0.00 | 0.01 | 0.00 | 56 | 1006.7 |
| 20260503190010 | 43 | 320 | 2.0 | 8.0 | 0.00 | 0.01 | 0.00 | 57 | 1006.7 |
| 20260503184601 | 42 | 290 | 2.0 | 10.0 | 0.00 | 0.01 | 0.00 | 59 | 1006.8 |
| 20260503183107 | 42 | 5 | 4.0 | 13.0 | 0.00 | 0.01 | 0.00 | 56 | 1006.8 |
| 20260503181600 | 41 | 339 | 1.0 | 13.0 | 0.00 | 0.01 | 0.00 | 60 | 1006.8 |
| 20260503180108 | 42 | 344 | 3.0 | 10.0 | 0.00 | 0.01 | 0.00 | 59 | 1006.9 |
| 20260503180004 | 42 | 341 | 2.0 | 12.0 | 0.00 | 0.01 | 0.00 | 59 | 1006.8 |
| 20260503174600 | 44 | 5 | 4.0 | 11.0 | 0.00 | 0.01 | 0.00 | 63 | 1006.9 |
| 20260503173203 | 42 | 341 | 3.0 | 9.0 | 0.00 | 0.01 | 0.00 | 59 | 1006.9 |
| 20260503171601 | 41 | 245 | 3.0 | 11.0 | 0.00 | 0.01 | 0.00 | 61 | 1007.0 |
| 20260503150113 | 39 | 327 | 3.0 | 10.0 | 0.00 | 0.01 | 0.00 | 68 | 1007.8 |